Date String (YYYY-MM-DD hh:mm:ss) UTC,Instrument flags,Ambient pressure (hPa),Sample flow (lpm),Bypass flow (lpm),Sample temperature (°C),Ambient temperature (°C),ASC tube jacket temperature (°C),LED temperature (°C),Box temperature (°C),Sample RH (%),Span deviation,Mass concentration (μg/m³),Mass concentration (μg/m³),Mass concentration (μg/m³)
DateTimeUTC,F1_M11,P_M11,Q1_M11,Q2_M11,T1_M11,T2_M11,T3_M11,T4_M11,T5_M11,U1_M11,ZSPAN_M11,X0_M11,X2_M11,X1_M11
2022-07-12 19:00:00,,0829.2,4.99,0.00,29.3,27.9,00.0,37.9,31.3,32.3,0000.0,0021.18,0008.82,0007.48
2022-07-12 19:01:00,,0829.2,5.00,0.00,29.3,27.3,00.0,37.9,31.2,32.6,0000.0,0021.32,0008.76,0007.45
2022-07-12 19:02:00,,0829.2,5.00,0.00,29.2,27.1,00.0,37.9,31.1,32.6,0000.0,0021.43,0008.70,0007.42
2022-07-12 19:03:00,,0829.2,4.99,0.00,29.2,27.1,00.0,37.9,31.0,32.6,0000.0,0021.88,0008.67,0007.39
2022-07-12 19:04:00,,0829.2,5.00,0.00,29.2,27.2,00.0,37.9,30.9,32.4,0000.0,0022.47,0008.73,0007.41
2022-07-12 19:05:00,,0829.2,5.00,0.00,29.2,27.4,00.0,37.9,31.0,32.6,0000.0,0022.34,0008.71,0007.41
2022-07-12 19:06:00,,0829.3,4.99,0.00,29.2,27.6,00.0,37.9,31.0,32.2,0000.0,0024.23,0008.72,0007.42
2022-07-12 19:07:00,,0829.3,5.01,0.00,29.2,27.8,00.0,37.9,31.1,32.0,0000.0,0025.68,0008.70,0007.42
2022-07-12 19:08:00,,0829.3,4.99,0.00,29.2,28.0,00.0,37.9,31.2,32.2,0000.0,0026.51,0008.75,0007.41
2022-07-12 19:09:00,,0829.2,5.01,0.00,29.3,28.1,00.0,38.0,31.3,32.4,0000.0,0026.08,0008.75,0007.41
2022-07-12 19:10:00,,0829.2,4.99,0.00,29.3,28.0,00.0,37.9,31.3,32.7,0000.0,0025.33,0008.77,0007.42
2022-07-12 19:11:00,,0829.2,5.01,0.00,29.3,27.4,00.0,37.9,31.2,32.6,0000.0,0025.03,0008.79,0007.41
2022-07-12 19:12:00,,0829.2,5.00,0.00,29.3,27.1,00.0,37.9,31.1,32.7,0000.0,0023.87,0008.82,0007.43
2022-07-12 19:13:00,,0829.2,5.00,0.00,29.2,27.1,00.0,37.9,31.0,32.6,0000.0,0022.98,0008.84,0007.43
2022-07-12 19:14:00,,0829.2,4.99,0.00,29.2,27.2,00.0,37.9,30.9,32.0,0000.0,0022.40,0008.84,0007.43
2022-07-12 19:15:00,,0829.2,5.01,0.00,29.2,27.4,00.0,37.9,31.0,32.2,0000.0,0021.90,0008.83,0007.41
2022-07-12 19:16:00,,0829.2,4.99,0.00,29.2,27.6,00.0,37.9,31.1,32.7,0000.0,0021.99,0008.82,0007.40
2022-07-12 19:17:00,,0829.2,5.00,0.00,29.2,27.8,00.0,37.9,31.1,33.2,0000.0,0021.18,0008.84,0007.41
2022-07-12 19:18:00,,0829.2,5.00,0.00,29.3,28.0,00.0,37.9,31.2,32.3,0000.0,0020.53,0008.92,0007.41
2022-07-12 19:19:00,,0829.2,5.00,0.00,29.3,28.1,00.0,38.0,31.3,32.1,0000.0,0019.49,0008.92,0007.43
2022-07-12 19:20:00,,0829.2,5.00,0.00,29.3,27.7,00.0,37.9,31.3,32.1,0000.0,0018.62,0008.93,0007.45
2022-07-12 19:21:00,,0829.2,5.00,0.00,29.3,27.2,00.0,37.9,31.1,32.0,0000.0,0018.42,0008.93,0007.46
2022-07-12 19:22:00,,0829.3,5.00,0.00,29.2,27.1,00.0,37.9,31.1,32.2,0002.2,0018.98,0008.89,0007.46
2022-07-12 19:23:00,,0829.3,5.00,0.00,29.2,27.1,00.0,37.9,31.0,31.6,0003.0,0019.12,0008.86,0007.46
2022-07-12 19:24:00,,0829.3,5.00,0.00,29.2,27.3,00.0,37.9,30.9,31.8,0001.8,0018.72,0008.82,0007.44
2022-07-12 19:25:00,,0829.2,4.99,0.00,29.2,27.5,00.0,37.9,31.0,32.5,0000.0,0019.15,0008.86,0007.44
2022-07-12 19:26:00,,0829.3,5.01,0.00,29.2,27.7,00.0,37.9,31.1,32.5,0000.0,0019.39,0008.85,0007.46
2022-07-12 19:27:00,,0829.2,4.99,0.00,29.2,27.9,00.0,37.9,31.2,32.1,0000.0,0019.16,0008.87,0007.49
2022-07-12 19:28:00,,0829.2,5.00,0.00,29.3,28.0,00.0,38.0,31.2,32.0,0000.0,0018.91,0008.84,0007.50
2022-07-12 19:29:00,,0829.2,5.00,0.00,29.3,28.2,00.0,38.0,31.3,31.8,0000.0,0018.70,0008.82,0007.51
2022-07-12 19:30:00,,0829.2,5.00,0.00,29.3,27.8,00.0,37.9,31.3,31.8,0000.0,0019.40,0008.84,0007.51
2022-07-12 19:31:00,,0829.2,5.00,0.00,29.3,27.3,00.0,37.9,31.2,32.0,0000.0,0020.30,0008.86,0007.51
2022-07-12 19:32:00,,0829.2,5.01,0.00,29.2,27.1,00.0,37.9,31.1,32.0,0000.0,0021.29,0008.89,0007.52
2022-07-12 19:33:00,,0829.1,5.01,0.00,29.2,27.1,00.0,37.9,31.0,31.9,0000.0,0020.81,0008.94,0007.53
2022-07-12 19:34:00,,0829.1,4.99,0.00,29.2,27.3,00.0,37.9,30.9,32.2,0000.0,0020.78,0008.98,0007.54
2022-07-12 19:35:00,,0829.1,5.01,0.00,29.2,27.4,00.0,37.9,31.0,32.0,0000.0,0021.11,0009.08,0007.58
2022-07-12 19:36:00,,0829.1,5.00,0.00,29.2,27.6,00.0,37.9,31.1,32.0,0000.0,0021.39,0009.09,0007.62
2022-07-12 19:37:00,,0829.1,5.00,0.00,29.2,27.8,00.0,37.9,31.2,31.8,0000.0,0021.18,0009.13,0007.64
2022-07-12 19:38:00,,0829.1,5.00,0.00,29.3,28.0,00.0,38.0,31.2,31.7,0000.0,0021.90,0009.13,0007.65
2022-07-12 19:39:00,,0829.1,5.02,0.00,29.3,28.2,00.0,38.0,31.3,31.6,0000.0,0021.34,0009.16,0007.66
2022-07-12 19:40:00,,0829.1,5.00,0.00,29.3,28.2,00.0,38.0,31.3,31.6,0000.0,0021.29,0009.15,0007.69
2022-07-12 19:41:00,,0829.1,4.99,0.00,29.3,27.6,00.0,37.9,31.2,31.5,0000.0,0021.91,0009.16,0007.71
2022-07-12 19:42:00,,0829.1,5.01,0.00,29.3,27.1,00.0,37.9,31.1,31.8,0000.0,0022.73,0009.18,0007.73
2022-07-12 19:43:00,,0829.0,5.00,0.00,29.2,27.0,00.0,37.9,31.0,32.0,0000.0,0022.60,0009.14,0007.74
2022-07-12 19:44:00,,0829.0,5.00,0.00,29.2,27.1,00.0,37.9,30.9,32.0,0000.0,0023.00,0009.11,0007.75
2022-07-12 19:45:00,,0829.0,5.00,0.00,29.2,27.3,00.0,37.9,30.9,32.1,0000.0,0023.44,0009.11,0007.76
2022-07-12 19:46:00,,0829.0,5.00,0.00,29.2,27.5,00.0,37.9,31.0,31.8,0000.0,0023.74,0009.13,0007.76
2022-07-12 19:47:00,,0829.0,4.99,0.00,29.2,27.7,00.0,37.9,31.1,31.6,0000.0,0023.49,0009.14,0007.75
2022-07-12 19:48:00,,0829.1,5.00,0.00,29.2,27.9,00.0,37.9,31.2,31.6,0000.0,0022.96,0009.14,0007.73
2022-07-12 19:49:00,,0829.1,5.00,0.00,29.3,28.0,00.0,38.0,31.3,31.3,0000.0,0022.84,0009.15,0007.74
2022-07-12 19:50:00,,0829.1,5.00,0.00,29.3,28.1,00.0,38.0,31.3,30.9,0000.0,0024.08,0009.16,0007.74
2022-07-12 19:51:00,,0829.1,4.99,0.00,29.3,27.6,00.0,37.9,31.2,31.1,0000.0,0025.00,0009.20,0007.74
2022-07-12 19:52:00,,0829.0,5.02,0.00,29.3,27.1,00.0,37.9,31.1,31.6,0000.0,0024.60,0009.21,0007.74
2022-07-12 19:53:00,,0829.1,5.00,0.00,29.2,26.9,00.0,37.9,31.0,31.8,0000.0,0023.82,0009.19,0007.74
2022-07-12 19:54:00,,0829.1,5.00,0.00,29.2,27.0,00.0,37.9,30.9,32.0,0000.0,0024.00,0009.21,0007.73
2022-07-12 19:55:00,,0829.1,5.00,0.00,29.1,27.1,00.0,37.9,30.9,31.7,0000.0,0023.61,0009.26,0007.74
2022-07-12 19:56:00,,0829.0,5.00,0.00,29.1,27.4,00.0,37.9,31.0,31.5,0000.0,0025.60,0009.35,0007.78
2022-07-12 19:57:00,,0829.1,5.00,0.00,29.2,27.6,00.0,37.9,31.1,31.4,0000.0,0026.47,0009.39,0007.81
2022-07-12 19:58:00,,0829.1,5.00,0.00,29.2,27.8,00.0,37.9,31.1,30.7,0000.0,0026.74,0009.39,0007.84
2022-07-12 19:59:00,,0829.0,5.00,0.00,29.2,27.9,00.0,37.9,31.2,30.6,0000.0,0029.01,0009.47,0007.89
